Regional Weather Roundup
Issued by NWS

Home | Current Version | Previous Version | Graphics & Text | Print | Product List | Glossary On
Versions: 1 2 3 4 5 6 7 8 9 10 11 12 13 14 15 16 17 18 19 20 21 22 23 24 25 26 27
000
ASUS45 KBOU 210606
RWRCO

WEATHER ROUNDUP FOR COLORADO
NATIONAL WEATHER SERVICE DENVER/BOULDER CO
1200 AM MDT MON APR 21 2014

NOTE: "FAIR" INDICATES FEW OR NO CLOUDS BELOW 12000 FEET WITH NO
SIGNIFICANT WEATHER AND/OR OBSTRUCTIONS TO VISIBILITY.

COZ001>005-013-030-031-210700-
...NORTHWEST COLORADO...

CITY           SKY/WX    TMP DP  RH WIND       PRES   REMARKS
CRAIG          CLOUDY    45  38  76 SE3       30.24S
HAYDEN         PTCLDY    43  37  81 SE10      30.28R
MEEKER         PTCLDY    43  34  70 NE7       30.25R
MOUNT WERNER   PTCLDY    39  21  48 W8        30.41R
STEAMBOAT SPGS PTCLDY    40  34  79 CALM      30.27R
WALDEN         CLEAR     32  28  86 SE6       30.30R WCI  26
$$

COZ006>008-011-210700-
...WEST CENTRAL VALLEYS...

CITY           SKY/WX    TMP DP  RH WIND       PRES   REMARKS
GRAND JUNCTION CLEAR     48  37  65 E3        30.17R
MONTROSE       PTCLDY    49  36  61 SE7       30.23R
EAGLE          CLEAR     43  36  75 E8        30.29R
RIFLE          CLEAR     43  37  79 CALM      30.24R
DELTA          PTCLDY    54  40  58 N6        30.19S
NUCLA            N/A     50  34  53 E10       30.24R
$$

COZ017>023-064>068-210700-
...SOUTHWEST COLORADO...

CITY           SKY/WX    TMP DP  RH WIND       PRES   REMARKS
DURANGO        CLEAR     52  27  38 N6        30.20R
CORTEZ         CLEAR     42  31  64 E7        30.20R
PAGOSA SPRINGS CLEAR     43  26  50 CALM      30.25R
TELLURIDE      PTCLDY    39  30  70 SE7       30.34S
WOLF CREEK PAS CLEAR     32  23  69 E8        30.43R WCI  25
$$

COZ009-010-012-014-032>034-037-058>063-210700-
...CENTRAL COLORADO...

CITY           SKY/WX    TMP DP  RH WIND       PRES   REMARKS
ASPEN          CLEAR     38  35  89 S6        30.31R
BUENA VISTA    CLOUDY    48  31  51 NW10      30.28R
COPPER MTN     CLEAR     34  28  80 W7        30.45R WCI  28
BERTHOUD PASS  MOCLDY    25  16  68 NW8       30.46R WCI  16
COTTONWOOD PAS CLOUDY    43  30  61 W9        30.35S
GUNNISON       PTCLDY    43  28  56 SW3       30.32R
KREMMLING      CLEAR     36  32  87 CALM      30.32R
LEADVILLE      PTCLDY    29  25  85 E6        30.36S WCI  23
MONARCH PASS   PTCLDY    32  27  80 W8        30.54R WCI  25
SALIDA         CLOUDY    45  33  63 W9        30.35R
SUNLIGHT       PTCLDY    36  32  87 CALM      30.42S
WILKERSON PASS PTCLDY    34  27  75 W5        30.43S WCI  30
$$

COZ069>075-210700-
...SAN LUIS VALLEY/SANGRE DE CRISTO MOUNTAINS...

CITY           SKY/WX    TMP DP  RH WIND       PRES   REMARKS
ALAMOSA        PTCLDY    45  35  68 CALM      30.25R
LA VETA PASS   PTCLDY    34  30  86 CALM      30.36R
SAGUACHE       CLEAR     48  32  53 NW12      30.28R
$$

COZ035-036-038>040-210700-
...NORTHERN COLORADO FRONT RANGE...

CITY           SKY/WX    TMP DP  RH WIND       PRES   REMARKS
DENVER INTL AP PTCLDY    53  37  54 SW10      30.14R
DMNS CITY PARK   N/A     55  37  51 S7        30.14R
AURORA         MOCLDY    52  37  58 S6        30.15R
FRONT RANGE AP NOT AVBL
ERIE MUNI ARPT CLEAR     51  37  58 CALM      30.13R
BOULDER MUN AP CLEAR     55  30  38 SW6       30.13R
CENTENNIAL     PTCLDY    50  36  58 CALM      30.16R
BROOMFIELD     PTCLDY    54  34  47 W14       30.14S
FORT COLLINS   CLEAR     52  34  50 N8        30.15R
LONGMONT       CLEAR     50  37  60 CALM      30.14R
$$

COZ041-046-047-076>085-087-088-210700-
...PIKES PEAK/PALMER DIVIDE AND SOUTHERN FOOTHILLS...

CITY           SKY/WX    TMP DP  RH WIND       PRES   REMARKS
COLO. SPRINGS  MOCLDY    53  36  52 NW10      30.18R
A. F. ACADEMY  PTCLDY    45  37  74 N6        30.20R
ELLICOTT       NOT AVBL
FALCON         CLOUDY    53  33  46 NW9       30.20S
FORT CARSON    MOCLDY    53  37  54 N8        30.15S
LIMON          CLEAR     43  35  73 NW7       30.12R
MONUMENT HILL  PTCLDY    41  34  75 SW10      30.20S
TRINIDAD       CLEAR     48  41  76 W14       30.15R
$$

COZ042>045-048>051-090-091-210700-
...NORTHEAST COLORADO...

CITY           SKY/WX    TMP DP  RH WIND       PRES   REMARKS
GREELEY ARPT   CLEAR     46  36  66 N13       30.12R
AKRON          CLEAR     49  35  58 NW9       30.06S
BURLINGTON     CLEAR     46  40  79 W10       30.04R
WRAY           CLEAR     47  43  85 SE3       30.02R
STERLING       CLEAR     55  37  50 NE13      30.07R
HOLYOKE        CLEAR     59  43  55 N20       30.05R
FORT MORGAN    CLOUDY    56  31  37 N14       30.11R
$$

COZ086-089-092>099-210700-
...SOUTHEAST COLORADO...

CITY           SKY/WX    TMP DP  RH WIND       PRES   REMARKS
PUEBLO         PTCLDY    59  40  49 N9        30.10R
LA JUNTA       CLEAR     55  46  71 W12       30.05R
LAMAR          CLEAR     53  49  86 SW5       30.01R
SPRINGFIELD      N/A     50  45  83 NW9       30.03R
$$



USA.gov is the U.S. government's official web portal to all federal, state and local government web resources and services.